Location: Gipe Farm
(40.9466°N, 95.5370°W)
Time: 15:46:10
(UTC-06:00)

Daily predictions for brighter satellites

Satellite Brightness Start Highest point End
(mag) Time Altitude Azimuth Time Altitude Azimuth Time Altitude Azimuth
CZ-3A R/B 2.8 17:08:58 10° SW 17:12:35 82° NW 17:29:37 10° NE
SPOT 3 Rocket 3.7 17:21:47 10° SE 17:26:48 51° ENE 17:31:49 10° N
PAYLOAD A 3.8 17:22:20 10° SSE 17:27:04 73° ENE 17:32:00 10° N
SMAP 3.3 17:24:11 10° SE 17:28:38 48° ENE 17:33:06 10° N
Cosmos 1300 Rocket 4.5 17:25:20 10° NNW 17:29:34 53° W 17:33:45 10° S
YAOGAN 1 2.9 17:25:58 10° SE 17:30:04 44° ENE 17:34:11 10° N
Cosmos 2278 Rocket 3.4 17:27:37 10° SSE 17:31:49 22° E 17:36:03 10° NE
COSMOS 2406 3.2 17:27:40 10° NNW 17:33:23 68° ENE 17:39:05 10° SSE
SL-8 Rocket 4.1 17:28:36 10° N 17:34:37 51° ENE 17:40:34 10° SSE
Cosmos 1378 Rocket 4.1 17:36:01 10° SSW 17:40:17 61° W 17:44:34 10° N
Abrixas 4.3 17:39:57 10° NW 17:42:11 19° N 17:44:08 11° NE
IDEFIX/ARIANE 42P 2.5 17:37:55 10° SSE 17:43:04 68° ENE 17:48:14 10° N
USA 32 4.2 17:38:02 10° SSE 17:43:04 52° E 17:48:09 10° NNE
Meteor 1-5 Rocket 4.1 17:38:41 10° N 17:44:06 72° E 17:49:38 10° SSE
Cosmos 2366 rocket 4.3 17:38:35 10° N 17:44:40 45° ENE 17:50:41 10° SSE
OTV 4 2.0 17:43:27 10° WSW 17:46:11 32° S 17:48:55 10° SE
Cosmos 2218 Rocket 4.1 17:40:23 10° N 17:46:33 53° ENE 17:52:36 10° SSE
Cosmos 2181 Rocket 4.1 17:40:23 10° S 17:46:43 90° E 17:53:11 10° N
Cosmos 1484 Rocket 3.7 17:43:58 10° SE 17:47:08 26° ENE 17:50:16 10° NNE
SJ-7 4.5 17:43:10 10° SSE 17:47:20 64° ENE 17:51:33 10° N
CZ-3B DEB 2.1 17:44:22 10° SSW 17:47:39 55° SE 17:55:16 11° NE
Meteor 2-19 Rocket 4.5 17:42:36 10° N 17:48:36 59° E 17:54:32 10° SSE
Cosmos 372 Rocket 4.2 17:43:33 10° SSW 17:48:48 79° WNW 17:54:05 10° NNE
SKYMED 2 4.5 17:47:00 10° NE 17:50:46 28° E 17:54:31 10° SSE
USA 234 3.8 17:46:03 10° NE 17:52:23 54° NW 17:58:42 10° WSW
Cosmos 1455 Rocket 3.5 17:48:16 10° N 17:52:26 40° ENE 17:56:35 10° SSE
CZ-4 R/B 4.4 17:51:24 10° SSE 17:55:29 62° ENE 17:59:36 10° N
Cosmos 2082 Rocket 3.6 17:52:39 10° N 17:56:17 17° NE 17:57:45 16° ENE
Cosmos 1833 Rocket 4.1 17:58:47 10° N 18:02:15 16° NE 18:02:46 16° NE
BREEZE-M DEB (TANK) 4.3 17:56:22 10° WNW 18:02:51 52° SW 18:06:24 10° SE
NOSS 3-3 (A) 4.4 17:59:22 10° S 18:05:05 42° ESE 18:09:41 17° NE
NOSS 3-3 (C) 4.5 17:59:29 10° S 18:05:11 41° ESE 18:09:45 17° NE
Thor Agena Rocket 3.8 18:00:12 10° N 18:05:24 73° WNW 18:10:37 10° SSW
SL-8 R/B 4.3 18:01:48 10° SSW 18:06:17 41° SE 18:09:03 21° E
Cosmos 494 Rocket 4.1 18:01:31 10° N 18:06:38 51° ENE 18:11:44 10° SE
Okean 1 3.6 18:07:26 10° SSE 18:11:16 44° E 18:14:31 14° NNE
Cosmos 1500 3.9 18:08:17 10° NNE 18:11:41 30° ENE 18:15:05 10° SE
ATLAS 2AS CENTAUR R/B 3.0 18:05:58 10° NNW 18:14:06 74° NE 18:21:39 10° SE
Meteor 1-28 Rocket 4.1 18:15:04 27° E 18:15:34 28° E 18:18:53 10° SSE
Cosmos 2251 Rocket 3.4 18:14:54 10° NNW 18:20:17 79° ENE 18:25:36 10° SSE
ISS -2.5 18:17:20 10° WSW 18:20:30 44° NNW 18:21:49 28° NNE
Meteor 1-18 Rocket 4.1 18:15:28 10° S 18:21:04 81° E 18:26:49 10° NNE
SL-27 R/B 3.1 18:25:32 10° NNW 18:29:10 59° WSW 18:32:43 10° S
Cosmos 1812 2.9 18:27:47 10° SSW 18:31:37 70° W 18:35:29 10° N
Cosmos 1346 Rocket 2.9 18:28:24 10° S 18:32:10 47° E 18:32:45 43° ENE
Tiangong 1 3.3 18:32:54 10° S 18:34:09 15° SSE 18:34:09 15° SSE
MSX 4.3 18:29:40 10° S 18:35:22 64° WSW 18:41:05 10° NNW
CZ-4 R/B 4.1 18:33:15 10° SSW 18:36:33 22° W 18:39:50 10° NW
DMSP B5D1-3 4.4 18:34:03 12° NNE 18:38:52 71° ESE 18:43:58 10° S
COSMO-SKYMED 1 2.6 18:34:47 11° N 18:38:56 83° WNW 18:43:16 10° SSW
Nadezhda 3 Rocket 3.9 18:34:49 10° S 18:40:52 60° E 18:47:01 10° NNE
Meteor 2-21 4.3 18:35:12 10° N 18:41:23 69° E 18:47:29 10° SSE
GEOS 3 Rocket 3.5 18:41:26 10° SE 18:46:33 85° SW 18:51:42 10° NW
Cosmos 1844 Rocket 3.9 18:42:11 10° SW 18:47:24 40° WNW 18:52:42 10° N
Cosmos 1238 Rocket 4.4 18:48:18 10° SW 18:50:48 24° WNW 18:53:00 12° NNW
Cosmos 1975 3.3 18:49:01 10° NNW 18:53:03 62° W 18:57:02 10° S
ATLAS 3B CENTAUR R/B 4.2 18:39:42 10° WSW 18:55:38 38° S 19:00:10 21° SE
Cosmos 2297 3.7 18:53:21 10° S 18:58:50 56° ESE 18:59:27 53° E
Meteor 2-14 Rocket 4.3 18:59:10 10° N 19:05:21 78° E 19:11:29 10° SSE
BREEZE-M R/B 3.8 18:57:06 10° WSW 19:06:48 75° NNW 19:08:02 54° NE
Meteor 1-19 Rocket 4.1 19:04:57 10° S 19:10:41 74° E 19:12:12 50° NNE
Cosmos 2278 Rocket 2.9 19:09:59 10° SW 19:15:29 52° WNW 19:18:28 26° N
OTV 4 3.8 19:20:55 10° SW 19:21:18 11° SW 19:21:18 11° SW
FALCON 9 R/B 3.3 19:05:31 10° WSW 19:24:37 56° S 19:26:28 45° SE
Okean 1-7 Rocket 4.2 19:20:32 10° SSW 19:24:14 54° SW 19:24:14 54° SW
Meteor 1-13 Rocket 4.5 19:20:03 10° SSW 19:25:38 67° WNW 19:28:38 29° N
Meteor 2-16 Rocket 4.4 19:20:47 10° N 19:26:52 79° W 19:32:56 10° S
Timation 1 Rocket 4.3 19:23:58 10° SSW 19:29:25 74° S 19:29:25 74° S
BREEZE M DEB (TANK) 3.6 19:27:35 10° WSW 19:32:37 43° W 19:32:37 43° W
Cosmos 2082 Rocket 2.7 19:35:23 10° NNW 19:39:41 53° NW 19:39:41 53° NW
Timation 2 Rocket 4.3 19:35:49 10° NNW 19:42:37 73° WSW 19:44:52 45° S
Cosmos 1833 Rocket 3.7 19:41:15 10° NNW 19:44:32 36° NNW 19:44:32 36° NNW
NOSS 3-4 (A) 4.5 19:42:44 10° NNW 19:47:19 40° N 19:47:19 40° N
NOSS 3-4 (C) 4.5 19:42:50 10° NNW 19:47:23 40° N 19:47:23 40° N
BREEZE M DEB (TANK) 3.9 19:46:36 10° NW 19:50:34 68° N 19:50:34 68° N
CZ-3B DEB 4.2 20:18:13 10° WNW 20:24:07 40° N 20:24:12 40° N
